Location: Nassau
(25.0830°N, 77.3500°W)
Time: 08:14:02
(UTC-05:00)

ISS - All Passes

Search period start: 13 December 2017 00:00
Search period end: 23 December 2017 00:00
Orbit: 402 x 407 km, 51.6° (Epoch: 13 December)

Date Brightness Start Highest point End Pass type
(mag) Time Alt. Az. Time Alt. Az. Time Alt. Az.
13 Dec - 10:09:38 10° S 10:12:01 19° SE 10:14:24 10° E daylight
13 Dec - 11:45:47 10° W 11:48:21 21° NW 11:50:55 10° N daylight
13 Dec - 19:55:37 10° NW 19:58:53 88° WSW 20:02:08 10° SE night (unlit)
14 Dec - 10:52:53 10° WSW 10:56:03 46° NW 10:59:13 10° NNE daylight
14 Dec - 19:03:36 10° NNW 19:06:39 35° NE 19:09:40 10° ESE visible
14 Dec - 20:42:20 10° WSW 20:42:48 10° SW 20:43:17 10° SW night (unlit)
15 Dec - 10:00:35 10° SSW 10:03:49 65° SE 10:07:04 10° NE daylight
15 Dec - 18:12:04 10° N 18:14:18 17° NE 18:16:30 10° E visible
15 Dec - 19:48:01 10° WNW 19:50:42 24° SW 19:53:24 10° S visible
16 Dec - 09:08:54 10° S 09:11:39 25° SE 09:14:25 10° ENE daylight
16 Dec - 10:45:55 10° W 10:48:05 16° NW 10:50:16 10° N daylight
16 Dec - 18:55:19 10° NW 18:58:33 62° SW 19:01:46 10° SSE visible
17 Dec - 08:18:40 10° SE 08:19:32 11° SE 08:20:24 10° ESE daylight
17 Dec - 09:52:41 10° WSW 09:55:43 34° NW 09:58:44 10° NNE daylight
17 Dec - 18:03:06 10° NNW 18:06:17 49° NE 18:09:28 10° ESE visible
18 Dec - 09:00:09 10° SW 09:03:24 88° WNW 09:06:42 10° NE daylight
18 Dec - 17:11:20 10° N 17:13:56 21° NE 17:16:32 10° E daylight
18 Dec - 18:47:57 10° W 18:50:15 18° SW 18:52:32 10° S visible
19 Dec - 08:08:11 10° SSW 08:11:11 34° SE 08:14:11 10° ENE daylight
19 Dec - 09:46:07 10° WNW 09:47:43 13° NW 09:49:19 10° N daylight
19 Dec - 16:20:31 10° NNE 16:21:28 11° NE 16:22:25 10° NE daylight
19 Dec - 17:54:57 10° NW 17:58:05 43° SW 18:01:11 10° SSE visible
20 Dec - 07:17:07 10° SSE 07:19:01 15° SE 07:20:55 10° E daylight
20 Dec - 08:52:28 10° WSW 08:55:16 26° NW 08:58:05 10° NNE daylight
20 Dec - 17:02:33 10° NW 17:05:48 69° NE 17:09:03 10° SE daylight
21 Dec - 07:59:40 10° SW 08:02:54 62° NW 08:06:08 10° NE daylight
21 Dec - 16:10:35 10° NNW 16:13:27 28° NE 16:16:19 10° ESE daylight
21 Dec - 17:48:00 10° W 17:49:41 13° SW 17:51:20 10° SSW visible
22 Dec - 07:07:28 10° SSW 07:10:37 48° SE 07:13:46 10° NE daylight
22 Dec - 08:46:50 10° NW 08:47:15 10° NW 08:47:41 10° NNW daylight
22 Dec - 15:19:12 10° N 15:20:59 14° NE 15:22:46 10° ENE daylight
22 Dec - 16:54:32 10° WNW 16:57:29 31° SW 17:00:25 10° SSE daylight
